Radiation Dose at Monitoring Post of Fukushima Daini Nuclear Power Station
Date,Time,MP-1(microSv/h),MP-2(microSv/h),MP-3(microSv/h),MP-4(microSv/h),MP-5(microSv/h),MP-6(microSv/h),MP-7(microSv/h),Wind Direction,Wind Velocity(m/s),Rain
2017/06/11,00:00,0.368,0.227,0.390,0.359,0.323,0.189,0.118,north,5.9,No
2017/06/11,00:10,0.366,0.228,0.390,0.357,0.325,0.189,0.117,north,4.6,No
2017/06/11,00:20,0.368,0.227,0.390,0.359,0.322,0.189,0.117,north-northeast,4.6,No
2017/06/11,00:30,0.363,0.228,0.390,0.358,0.326,0.189,0.117,north,5.7,No
2017/06/11,00:40,0.366,0.227,0.390,0.358,0.324,0.188,0.117,northwest,5.0,No
2017/06/11,00:50,0.364,0.227,0.392,0.359,0.325,0.188,0.117,north-northwest,5.6,No
2017/06/11,01:00,0.368,0.227,0.389,0.356,0.322,0.189,0.118,north-northwest,2.9,No
2017/06/11,01:10,0.365,0.226,0.392,0.360,0.325,0.189,0.117,north-northwest,1.2,No
2017/06/11,01:20,0.366,0.228,0.389,0.357,0.326,0.188,0.117,north-northwest,2.2,No
2017/06/11,01:30,0.365,0.228,0.391,0.359,0.323,0.189,0.117,west,2.8,No
2017/06/11,01:40,0.368,0.226,0.391,0.356,0.326,0.188,0.118,west-southwest,2.3,No
2017/06/11,01:50,0.365,0.229,0.391,0.358,0.323,0.189,0.118,southwest,1.1,No
2017/06/11,02:00,0.365,0.226,0.393,0.359,0.324,0.189,0.117,south,1.5,No
2017/06/11,02:10,0.368,0.227,0.390,0.359,0.324,0.188,0.118,west-northwest,2.3,No
2017/06/11,02:20,0.364,0.227,0.391,0.361,0.325,0.189,0.116,west-northwest,1.6,No
2017/06/11,02:30,0.366,0.227,0.390,0.357,0.324,0.189,0.117,southwest,1.1,No
2017/06/11,02:40,0.367,0.228,0.393,0.360,0.324,0.189,0.118,south-southeast,1.9,No
2017/06/11,02:50,0.366,0.227,0.394,0.360,0.326,0.189,0.117,southeast,0.9,No
2017/06/11,03:00,0.366,0.226,0.389,0.359,0.322,0.189,0.117,south,2.5,No
2017/06/11,03:10,0.365,0.227,0.391,0.360,0.325,0.189,0.117,west-southwest,2.2,No
2017/06/11,03:20,0.366,0.226,0.390,0.358,0.325,0.189,0.117,west-southwest,0.7,No
2017/06/11,03:30,0.365,0.227,0.391,0.360,0.324,0.189,0.119,west,0.5,No
2017/06/11,03:40,0.365,0.227,0.392,0.359,0.325,0.189,0.117,-,CALM,No
2017/06/11,03:50,0.365,0.227,0.390,0.359,0.324,0.188,0.117,northwest,1.0,No
2017/06/11,04:00,0.368,0.226,0.393,0.359,0.326,0.189,0.117,east,1.1,No
2017/06/11,04:10,0.366,0.227,0.391,0.358,0.326,0.188,0.118,south-southwest,1.1,No
2017/06/11,04:20,0.365,0.227,0.391,0.360,0.324,0.189,0.118,southwest,2.0,No
2017/06/11,04:30,0.366,0.227,0.392,0.358,0.325,0.189,0.118,southwest,3.0,No
2017/06/11,04:40,0.365,0.227,0.391,0.358,0.324,0.188,0.118,south-southwest,2.7,No
2017/06/11,04:50,0.366,0.227,0.392,0.359,0.325,0.188,0.117,south-southwest,2.1,No
2017/06/11,05:00,0.365,0.227,0.392,0.360,0.324,0.190,0.117,south-southwest,4.0,No
2017/06/11,05:10,0.366,0.227,0.391,0.360,0.325,0.189,0.118,southwest,4.5,No
2017/06/11,05:20,0.368,0.226,0.392,0.358,0.325,0.188,0.117,west-southwest,6.0,No
2017/06/11,05:30,0.365,0.227,0.390,0.359,0.323,0.189,0.117,west-southwest,7.0,No
2017/06/11,05:40,0.367,0.226,0.393,0.360,0.325,0.189,0.116,west,8.4,No
2017/06/11,05:50,0.365,0.227,0.391,0.358,0.322,0.189,0.117,west,8.7,No
2017/06/11,06:00,0.366,0.226,0.392,0.360,0.325,0.188,0.116,west,7.3,No
2017/06/11,06:10,0.366,0.226,0.392,0.357,0.323,0.188,0.118,west,8.7,No
2017/06/11,06:20,0.365,0.227,0.390,0.360,0.326,0.190,0.118,west,8.6,No
2017/06/11,06:30,0.367,0.226,0.391,0.358,0.322,0.189,0.118,west,10.0,No
2017/06/11,06:40,0.366,0.226,0.390,0.359,0.325,0.189,0.117,west,8.1,No
2017/06/11,06:50,0.365,0.227,0.392,0.358,0.322,0.189,0.118,west-northwest,7.8,No
2017/06/11,07:00,0.365,0.227,0.389,0.360,0.325,0.188,0.117,west,8.3,No
2017/06/11,07:10,0.366,0.227,0.392,0.357,0.322,0.189,0.117,west,8.8,No
2017/06/11,07:20,0.364,0.226,0.391,0.360,0.326,0.188,0.117,west,9.4,No
2017/06/11,07:30,0.364,0.226,0.386,0.355,0.323,0.189,0.116,west,9.3,No
2017/06/11,07:40,0.366,0.227,0.390,0.358,0.325,0.188,0.117,west,11.5,No
2017/06/11,07:50,0.364,0.226,0.389,0.358,0.323,0.189,0.117,west,9.5,No
2017/06/11,08:00,0.368,0.229,0.388,0.354,0.324,0.188,0.116,west,11.0,No
2017/06/11,08:10,0.365,0.226,0.390,0.358,0.326,0.189,0.116,west-northwest,10.3,No
2017/06/11,08:20,0.368,0.225,0.390,0.359,0.321,0.189,0.116,west,10.1,No
2017/06/11,08:30,0.366,0.227,0.387,0.357,0.324,0.189,0.118,west-northwest,10.0,No
2017/06/11,08:40,0.364,0.227,0.391,0.355,0.324,0.188,0.118,northwest,9.5,No
2017/06/11,08:50,0.369,0.226,0.391,0.354,0.322,0.189,0.116,west-northwest,9.2,No
2017/06/11,09:00,0.366,0.225,0.388,0.352,0.324,0.190,0.117,west-northwest,6.7,No
2017/06/11,09:10,0.363,0.225,0.386,0.354,0.325,0.189,0.116,west-northwest,7.3,No
2017/06/11,09:20,0.365,0.227,0.387,0.355,0.324,0.188,0.116,northwest,6.4,No
2017/06/11,09:30,0.365,0.229,0.393,0.355,0.323,0.188,0.117,northwest,7.3,No
2017/06/11,09:40,0.366,0.226,0.391,0.356,0.322,0.188,0.116,northwest,4.8,No
2017/06/11,09:50,0.363,0.225,0.390,0.356,0.325,0.189,0.117,northwest,4.1,No
2017/06/11,10:00,0.367,0.226,0.391,0.358,0.327,0.190,0.116,west-northwest,5.0,No
2017/06/11,10:10,0.368,0.227,0.396,0.357,0.325,0.190,0.117,west-northwest,6.7,No
2017/06/11,10:20,0.366,0.228,0.392,0.358,0.324,0.190,0.117,west-northwest,4.4,No
2017/06/11,10:30,0.364,0.228,0.391,0.358,0.323,0.189,0.116,west-northwest,5.0,No
2017/06/11,10:40,0.363,0.227,0.390,0.358,0.323,0.189,0.116,west-northwest,4.7,No
2017/06/11,10:50,0.367,0.226,0.389,0.359,0.321,0.190,0.116,west-northwest,4.1,No
2017/06/11,11:00,0.369,0.227,0.390,0.359,0.323,0.190,0.115,west-northwest,4.0,No
2017/06/11,11:10,0.366,0.226,0.389,0.359,0.324,0.189,0.117,west-northwest,4.5,No
2017/06/11,11:20,0.365,0.226,0.390,0.359,0.322,0.189,0.117,west-southwest,1.8,No
2017/06/11,11:30,0.364,0.228,0.390,0.361,0.324,0.190,0.116,south-southwest,3.6,No
2017/06/11,11:40,0.364,0.227,0.390,0.359,0.324,0.190,0.116,south,0.7,No
2017/06/11,11:50,0.365,0.226,0.390,0.359,0.324,0.189,0.117,northwest,2.6,No
2017/06/11,12:00,0.365,0.227,0.391,0.362,0.325,0.190,0.117,northwest,5.5,No
2017/06/11,12:10,0.369,0.228,0.392,0.360,0.325,0.190,0.117,west,3.6,No
2017/06/11,12:20,0.370,0.230,0.392,0.361,0.325,0.189,0.116,west-northwest,3.1,No
2017/06/11,12:30,0.369,0.229,0.393,0.361,0.326,0.191,0.117,northwest,2.3,No
2017/06/11,12:40,0.367,0.228,0.391,0.362,0.327,0.191,0.117,east-southeast,3.6,No
2017/06/11,12:50,0.366,0.228,0.393,0.361,0.326,0.190,0.118,east,4.4,No
2017/06/11,13:00,0.365,0.227,0.395,0.360,0.325,0.190,0.119,east,5.0,No
2017/06/11,13:10,0.365,0.226,0.393,0.360,0.325,0.191,0.118,east,4.1,No
2017/06/11,13:20,0.368,0.228,0.391,0.360,0.324,0.191,0.118,east-southeast,4.5,No
2017/06/11,13:30,0.371,0.230,0.393,0.357,0.329,0.191,0.117,south-southeast,6.1,No
2017/06/11,13:40,0.368,0.229,0.393,0.360,0.330,0.190,0.119,south-southeast,6.5,No
2017/06/11,13:50,0.367,0.228,0.391,0.358,0.329,0.190,0.119,south-southeast,4.6,No
2017/06/11,14:00,0.366,0.227,0.393,0.360,0.327,0.190,0.118,south-southeast,5.4,No
2017/06/11,14:10,0.365,0.228,0.392,0.357,0.324,0.191,0.117,south,5.0,No
2017/06/11,14:20,0.363,0.230,0.392,0.358,0.324,0.191,0.117,south,5.7,No
2017/06/11,14:30,0.364,0.230,0.392,0.363,0.325,0.190,0.117,south,4.8,No
2017/06/11,14:40,0.368,0.229,0.393,0.366,0.324,0.190,0.118,south-southeast,4.5,No
2017/06/11,14:50,0.371,0.229,0.392,0.362,0.324,0.190,0.118,south,5.7,No
2017/06/11,15:00,0.368,0.226,0.391,0.362,0.325,0.190,0.118,south,6.3,No
2017/06/11,15:10,0.366,0.229,0.390,0.368,0.325,0.190,0.116,south,6.1,No
2017/06/11,15:20,0.370,0.229,0.393,0.362,0.325,0.190,0.117,south,5.3,No
2017/06/11,15:30,0.371,0.229,0.393,0.360,0.324,0.192,0.117,south,4.9,No
2017/06/11,15:40,0.369,0.226,0.393,0.365,0.325,0.190,0.118,south-southeast,4.8,No
2017/06/11,15:50,0.368,0.229,0.395,0.365,0.324,0.190,0.117,south-southeast,4.7,No
2017/06/11,16:00,0.372,0.230,0.397,0.361,0.325,0.191,0.118,south,4.7,No
2017/06/11,16:10,0.369,0.228,0.394,0.366,0.326,0.190,0.118,south,4.5,No
2017/06/11,16:20,0.366,0.230,0.397,0.363,0.327,0.191,0.118,south,5.0,No
2017/06/11,16:30,0.371,0.231,0.397,0.365,0.330,0.191,0.119,south,3.9,No
2017/06/11,16:40,0.370,0.229,0.393,0.365,0.328,0.192,0.118,south,3.7,No
2017/06/11,16:50,0.366,0.231,0.397,0.363,0.326,0.189,0.118,south,3.2,No
2017/06/11,17:00,0.368,0.228,0.395,0.366,0.325,0.190,0.118,south,3.3,No
2017/06/11,17:10,0.371,0.231,0.396,0.363,0.326,0.191,0.118,south,4.4,No
2017/06/11,17:20,0.367,0.230,0.399,0.364,0.323,0.190,0.119,south,4.4,No
2017/06/11,17:30,0.369,0.229,0.394,0.366,0.326,0.190,0.117,south,5.0,No
2017/06/11,17:40,0.371,0.230,0.394,0.363,0.330,0.192,0.118,south,4.1,No
2017/06/11,17:50,0.367,0.229,0.396,0.367,0.328,0.190,0.118,south,3.3,No
2017/06/11,18:00,0.368,0.230,0.395,0.365,0.326,0.191,0.119,south,3.4,No
2017/06/11,18:10,0.370,0.227,0.398,0.363,0.331,0.190,0.118,south,3.7,No
2017/06/11,18:20,0.366,0.230,0.394,0.365,0.328,0.190,0.118,south,4.1,No
2017/06/11,18:30,0.372,0.230,0.397,0.361,0.327,0.191,0.118,south,4.0,No
2017/06/11,18:40,0.369,0.229,0.398,0.366,0.329,0.190,0.118,south,4.5,No
2017/06/11,18:50,0.370,0.231,0.396,0.364,0.326,0.191,0.118,south-southwest,3.6,No
2017/06/11,19:00,0.369,0.229,0.397,0.365,0.330,0.190,0.118,south-southwest,2.3,No
2017/06/11,19:10,0.367,0.231,0.396,0.365,0.328,0.190,0.119,south-southwest,1.6,No
2017/06/11,19:20,0.371,0.230,0.399,0.364,0.331,0.190,0.118,south-southwest,1.8,No
2017/06/11,19:30,0.367,0.230,0.396,0.364,0.328,0.190,0.118,south-southwest,0.7,No
2017/06/11,19:40,0.370,0.230,0.397,0.365,0.329,0.189,0.118,south,1.2,No
2017/06/11,19:50,0.368,0.230,0.396,0.365,0.327,0.190,0.118,-,CALM,No
2017/06/11,20:00,0.370,0.230,0.398,0.364,0.327,0.190,0.119,south,1.1,No
2017/06/11,20:10,0.368,0.229,0.395,0.364,0.329,0.191,0.118,-,CALM,No
2017/06/11,20:20,0.371,0.231,0.398,0.363,0.329,0.190,0.118,-,CALM,No
2017/06/11,20:30,0.367,0.230,0.395,0.365,0.328,0.190,0.119,-,CALM,No
2017/06/11,20:40,0.371,0.229,0.396,0.365,0.329,0.191,0.119,-,CALM,No
2017/06/11,20:50,0.368,0.230,0.397,0.364,0.327,0.190,0.118,-,CALM,No
2017/06/11,21:00,0.372,0.231,0.399,0.366,0.329,0.192,0.119,-,CALM,No
2017/06/11,21:10,0.368,0.231,0.396,0.364,0.328,0.190,0.118,-,CALM,No
2017/06/11,21:20,0.372,0.229,0.395,0.367,0.329,0.191,0.119,north-northwest,0.5,No
2017/06/11,21:30,0.369,0.231,0.398,0.363,0.326,0.191,0.118,-,CALM,No
2017/06/11,21:40,0.370,0.231,0.395,0.367,0.329,0.190,0.119,-,CALM,No
2017/06/11,21:50,0.368,0.230,0.397,0.364,0.326,0.191,0.118,-,CALM,No
2017/06/11,22:00,0.370,0.230,0.394,0.366,0.329,0.192,0.118,northwest,0.6,No
2017/06/11,22:10,0.369,0.230,0.399,0.365,0.327,0.191,0.119,north-northwest,0.8,No
2017/06/11,22:20,0.370,0.230,0.395,0.366,0.328,0.192,0.118,north-northwest,0.6,No
2017/06/11,22:30,0.369,0.230,0.397,0.364,0.328,0.190,0.119,north-northwest,0.8,No
2017/06/11,22:40,0.370,0.229,0.398,0.364,0.327,0.191,0.118,north-northwest,1.9,No
2017/06/11,22:50,0.371,0.231,0.396,0.366,0.328,0.191,0.119,north,2.1,No
2017/06/11,23:00,0.369,0.229,0.397,0.364,0.327,0.190,0.119,north,3.1,No
2017/06/11,23:10,0.371,0.229,0.396,0.365,0.329,0.192,0.119,north-northwest,4.7,No
2017/06/11,23:20,0.369,0.229,0.397,0.364,0.327,0.191,0.119,north,5.7,No
2017/06/11,23:30,0.371,0.230,0.396,0.366,0.329,0.190,0.119,north-northwest,6.7,No
2017/06/11,23:40,0.369,0.231,0.397,0.363,0.326,0.191,0.118,north-northwest,5.9,No
2017/06/11,23:50,0.372,0.230,0.397,0.366,0.330,0.191,0.120,north,6.6,No
